H1 CPF 2 NER 2022 4 8 10 098 01 glonass135 H2 1600801 9135 41330 2022 4 8 0 0 0 2022 4 11 23 45 0 900 1 1 0 0 0 1 H9 10 0 59677 0.00000 0 -8131258.611 11451025.090 -21295013.326 10 0 59677 900.00000 0 -10583666.246 12115846.874 -19799977.862 10 0 59677 1800.00000 0 -12780458.275 12902841.199 -17920555.684 10 0 59677 2700.00000 0 -14675566.576 13763524.938 -15693311.588 10 0 59677 3600.00000 0 -16234296.453 14642994.765 -13161538.247 10 0 59677 4500.00000 0 -17434531.323 15482331.400 -10374413.785 10 0 59677 5400.00000 0 -18267419.133 16221187.953 -7386046.806 10 0 59677 6300.00000 0 -18737513.500 16800453.466 -4254427.257 10 0 59677 7200.00000 0 -18862365.118 17164879.561 -1040303.427 10 0 59677 8100.00000 0 -18671581.989 17265559.723 2193993.289 10 0 59677 9000.00000 0 -18205399.041 17062156.854 5385753.260 10 0 59677 9900.00000 0 -17512818.046 16524785.329 8473099.826 10 0 59677 10800.00000 0 -16649396.647 15635468.162 11396183.645 10 0 59677 11700.00000 0 -15674779.710 14389107.661 14098337.354 10 0 59677 12600.00000 0 -14650076.827 12793928.187 16527168.468 10 0 59677 13500.00000 0 -13635196.054 10871371.593 18635569.911 10 0 59677 14400.00000 0 -12686245.551 8655448.496 20382629.093 10 0 59677 15300.00000 0 -11853111.882 6191571.203 21734418.484 10 0 59677 16200.00000 0 -11177316.268 3534915.343 22664652.824 10 0 59677 17100.00000 0 -10690238.449 748376.729 23155200.646 10 0 59677 18000.00000 0 -10411782.613 -2099793.169 23196440.277 10 0 59677 18900.00000 0 -10349541.476 -4938576.561 22787453.333 10 0 59677 19800.00000 0 -10498493.976 -7696897.460 21936051.543 10 0 59677 20700.00000 0 -10841249.870 -10306337.206 20658635.714 10 0 59677 21600.00000 0 -11348831.747 -12703745.607 18979888.656 10 0 59677 22500.00000 0 -11981962.419 -14833639.730 16932306.955 10 0 59677 23400.00000 0 -12692804.327 -16650290.733 14555579.627 10 0 59677 24300.00000 0 -13427078.336 -18119411.854 11895824.694 10 0 59677 25200.00000 0 -14126472.931 -19219376.965 9004697.666 10 0 59677 26100.00000 0 -14731242.122 -19941918.514 5938388.822 10 0 59677 27000.00000 0 -15182881.893 -20292275.468 2756528.613 10 0 59677 27900.00000 0 -15426771.259 -20288785.188 -478977.300 10 0 59677 28800.00000 0 -15414665.126 -19961936.644 -3705160.023 10 0 59677 29700.00000 0 -15106932.114 -19352925.385 -6859221.929 10 0 59677 30600.00000 0 -14474441.270 -18511772.081 -9879768.628 10 0 59677 31500.00000 0 -13500016.429 -17495084.948 -12708013.145 10 0 59677 32400.00000 0 -12179395.447 -16363561.720 -15288927.881 10 0 59677 33300.00000 0 -10521652.730 -15179337.769 -17572321.076 10 0 59677 34200.00000 0 -8549066.413 -14003293.305 -19513816.205 10 0 59677 35100.00000 0 -6296435.111 -12892434.009 -21075715.046 10 0 59677 36000.00000 0 -3809872.391 -11897455.866 -22227727.785 10 0 59677 36900.00000 0 -1145129.231 -11060596.872 -22947556.305 10 0 59677 37800.00000 0 1634485.681 -10413865.675 -23221320.056 10 0 59677 38700.00000 0 4460501.304 -9977720.972 -23043816.989 10 0 59677 39600.00000 0 7261895.702 -9760256.215 -22418615.319 10 0 59677 40500.00000 0 9967815.396 -9756922.782 -21357975.130 10 0 59677 41400.00000 0 12510290.205 -9950802.042 -19882601.977 10 0 59677 42300.00000 0 14826831.384 -10313413.732 -18021237.800 10 0 59677 43200.00000 0 16862806.122 -10806025.644 -15810097.388 10 0 59677 44100.00000 0 18573490.757 -11381408.685 -13292161.494 10 0 59677 45000.00000 0 19925718.468 -11985962.824 -10516340.381 10 0 59677 45900.00000 0 20899054.181 -12562123.979 -7536523.976 10 0 59677 46800.00000 0 21486449.064 -13050950.218 -4410536.915 10 0 59677 47700.00000 0 21694348.597 -13394778.178 -1199018.700 10 0 59677 48600.00000 0 21542250.989 -13539837.701 2035749.463 10 0 59677 49500.00000 0 21061735.565 -13438714.478 5231048.578 10 0 59677 50400.00000 0 20295002.712 -13052556.872 8324933.274 10 0 59677 51300.00000 0 19292987.333 -12352933.818 11257427.488 10 0 59677 52200.00000 0 18113125.308 -11323265.249 13971681.592 10 0 59677 53100.00000 0 16816866.845 -9959764.373 16415068.821 10 0 59677 54000.00000 0 15467040.907 -8271851.412 18540200.323 10 0 59677 54900.00000 0 14125180.913 -6282020.302 20305839.684 10 0 59677 55800.00000 0 12848923.415 -4025162.583 21677699.705 10 0 59677 56700.00000 0 11689588.201 -1547375.093 22629106.532 10 0 59677 57600.00000 0 10690040.724 1095700.639 23141518.622 10 0 59677 58500.00000 0 9882925.984 3840939.936 23204890.597 10 0 59677 59400.00000 0 9289347.642 6620113.526 22817874.892 10 0 59677 60300.00000 0 8918047.619 9362485.944 21987856.829 10 0 59677 61200.00000 0 8765120.834 11997527.135 20730821.834 10 0 59677 62100.00000 0 8814277.368 14457625.701 19071056.413 10 0 59677 63000.00000 0 9037641.548 16680691.723 17040687.662 10 0 59677 63900.00000 0 9397054.860 18612541.071 14679069.159 10 0 59677 64800.00000 0 9845828.278 20208961.936 12032024.145 10 0 59677 65700.00000 0 10330870.354 21437377.088 9150959.850 10 0 59677 66600.00000 0 10795101.222 22278031.955 6091869.712 10 0 59677 67500.00000 0 11180050.113 22724658.415 2914242.727 10 0 59677 68400.00000 0 11428525.806 22784586.231 -320098.653 10 0 59677 69300.00000 0 11487245.899 22478297.266 -3548208.766 10 0 59677 70200.00000 0 11309312.387 21838441.757 -6707252.742 10 0 59677 71100.00000 0 10856427.201 20908358.353 -9735739.161 10 0 59677 72000.00000 0 10100752.492 19740161.053 -12574726.131 10 0 59677 72900.00000 0 9026335.582 18392474.836 -15168976.324 10 0 59677 73800.00000 0 7630037.078 16927916.389 -17468037.620 10 0 59677 74700.00000 0 5921922.045 15410427.157 -19427227.685 10 0 59677 75600.00000 0 3925096.846 13902571.796 -21008503.122 10 0 59677 76500.00000 0 1674997.882 12462916.225 -22181196.404 10 0 59677 77400.00000 0 -781838.366 11143595.698 -22922606.617 10 0 59677 78300.00000 0 -3389472.884 9988174.786 -23218433.220 10 0 59677 79200.00000 0 -6084658.660 9029888.467 -23063045.162 10 0 59677 80100.00000 0 -8799245.114 8290337.108 -22459580.990 10 0 59677 81000.00000 0 -11462792.653 7778688.823 -21419878.763 10 0 59677 81900.00000 0 -14005289.086 7491421.195 -19964237.813 10 0 59677 82800.00000 0 -16359855.432 7412611.754 -18121017.505 10 0 59677 83700.00000 0 -18465329.379 7514763.547 -15926081.099 10 0 59677 84600.00000 0 -20268619.832 7760129.850 -13422095.644 10 0 59677 85500.00000 0 -21726735.439 8102481.231 -10657701.588 10 0 59678 0.00000 0 -22808403.637 8489239.741 -7686568.397 10 0 59678 900.00000 0 -23495214.306 8863889.917 -4566352.745 10 0 59678 1800.00000 0 -23782240.009 9168564.107 -1357583.468 10 0 59678 2700.00000 0 -23678109.908 9346693.536 1877510.583 10 0 59678 3600.00000 0 -23204533.687 9345612.668 5076203.260 10 0 59678 4500.00000 0 -22395296.882 9119007.149 8176482.737 10 0 59678 5400.00000 0 -21294770.190 8629101.951 11118248.543 10 0 59678 6300.00000 0 -19955995.603 7848497.254 13844471.127 10 0 59678 7200.00000 0 -18438429.700 6761574.382 16302291.786 10 0 59678 8100.00000 0 -16805438.508 5365411.981 18444042.171 10 0 59678 9000.00000 0 -15121648.478 3670172.964 20228164.174 10 0 59678 9900.00000 0 -13450263.968 1698944.783 21620012.848 10 0 59678 10800.00000 0 -11850462.802 -512961.905 22592527.384 10 0 59678 11700.00000 0 -10374978.138 -2919228.667 23126757.468 10 0 59678 12600.00000 0 -9067967.161 -5464210.016 23212234.970 10 0 59678 13500.00000 0 -7963255.173 -8085011.357 22847183.701 10 0 59678 14400.00000 0 -7083028.146 -10713879.545 22038562.758 10 0 59678 15300.00000 0 -6437028.342 -13280808.130 20801941.963 10 0 59678 16200.00000 0 -6022286.651 -15716250.233 19161210.921 10 0 59678 17100.00000 0 -5823403.062 -17953827.081 17148126.260 10 0 59678 18000.00000 0 -5813363.691 -19932919.755 14801704.792 10 0 59678 18900.00000 0 -5954860.231 -21601036.236 12167473.330 10 0 59678 19800.00000 0 -6202056.286 -22915854.636 9296588.891 10 0 59678 20700.00000 0 -6502726.003 -23846856.634 6244845.910 10 0 59678 21600.00000 0 -6800674.218 -24376482.156 3071589.569 10 0 59678 22500.00000 0 -7038335.078 -24500756.266 -161443.402 10 0 59678 23400.00000 0 -7159438.132 -24229361.542 -3391333.254 10 0 59678 24300.00000 0 -7111627.727 -23585152.797 -6555210.683 10 0 59678 25200.00000 0 -6848923.342 -22603134.654 -9591490.163 10 0 59678 26100.00000 0 -6333915.200 -21328945.603 -12441077.917 10 0 59678 27000.00000 0 -5539600.748 -19816912.877 -15048529.954 10 0 59678 27900.00000 0 -4450782.979 -18127761.068 -17363136.802 10 0 59678 28800.00000 0 -3064970.516 -16326071.961 -19339913.173 10 0 59678 29700.00000 0 -1392740.516 -14477603.053 -20940473.084 10 0 59678 30600.00000 0 542451.635 -12646578.007 -22133773.518 10 0 59678 31500.00000 0 2705008.341 -10893063.109 -22896712.524 10 0 59678 32400.00000 0 5048441.122 -9270539.551 -23214570.825 10 0 59678 33300.00000 0 7517085.243 -7823772.720 -23081289.115 10 0 59678 34200.00000 0 10048206.296 -6587066.789 -22499576.499 10 0 59678 35100.00000 0 12574411.220 -5582976.355 -21480848.759 10 0 59678 36000.00000 0 15026263.691 -4821527.524 -20044998.295 10 0 59678 36900.00000 0 17334995.390 -4299979.372 -18220000.742 10 0 59678 37800.00000 0 19435200.860 -4003134.074 -16041366.218 10 0 59678 38700.00000 0 21267404.414 -3904181.009 -13551446.017 10 0 59678 39600.00000 0 22780392.862 -3966037.958 -10798608.257 10 0 59678 40500.00000 0 23933217.643 -4143131.735 -7836298.456 10 0 59678 41400.00000 0 24696783.732 -4383542.334 -4722003.085 10 0 59678 42300.00000 0 25054959.761 -4631419.543 -1516136.198 10 0 59678 43200.00000 0 25005163.854 -4829569.651 1719129.465 10 0 59678 44100.00000 0 24558401.415 -4922102.850 4921064.380 10 0 59678 45000.00000 0 23738753.911 -4857029.457 8027593.929 10 0 59678 45900.00000 0 22582340.564 -4588695.313 10978496.662 10 0 59678 46800.00000 0 21135796.661 -4079953.489 13716566.202 10 0 59678 47700.00000 0 19454332.253 -3303980.512 16188714.598 10 0 59678 48600.00000 0 17599452.307 -2245660.154 18346996.258 10 0 59678 49500.00000 0 15636433.200 -902475.834 20149533.171 10 0 59678 50400.00000 0 13631660.520 715126.876 21561323.992 10 0 59678 51300.00000 0 11649938.585 2583924.233 22554921.833 10 0 59678 52200.00000 0 9751883.215 4668638.787 23110968.026 10 0 59678 53100.00000 0 7991505.825 6923175.860 23218571.635 10 0 59678 54000.00000 0 6414088.884 9292322.434 22875527.328 10 0 59678 54900.00000 0 5054440.836 11713839.580 22088366.977 10 0 59678 55800.00000 0 3935602.972 14120862.923 20872243.367 10 0 59678 56700.00000 0 3068062.008 16444512.647 19250647.355 10 0 59678 57600.00000 0 2449501.229 18616605.391 17254962.910 10 0 59678 58500.00000 0 2065100.612 20572355.520 14923867.595 10 0 59678 59400.00000 0 1888373.323 22252953.254 12302589.094 10 0 59678 60300.00000 0 1882503.314 23607911.700 9442031.348 10 0 59678 61200.00000 0 2002127.455 24597083.967 6397786.812 10 0 59678 62100.00000 0 2195486.527 25192265.149 3229053.828 10 0 59678 63000.00000 0 2406853.463 25378311.052 -2519.624 10 0 59678 63900.00000 0 2579135.092 25153726.044 -3234042.655 10 0 59678 64800.00000 0 2656536.022 24530694.748 -6402614.329 10 0 59678 65700.00000 0 2587170.417 23534556.013 -9446557.613 10 0 59678 66600.00000 0 2325509.586 22202741.344 -12306629.145 10 0 59678 67500.00000 0 1834560.277 20583222.800 -14927180.268 10 0 59678 68400.00000 0 1087680.118 18732536.387 -17257245.836 10 0 59678 69300.00000 0 69952.355 16713464.711 -19251538.974 10 0 59678 70200.00000 0 -1220939.129 14592477.009 -20871332.178 10 0 59678 71100.00000 0 -2774372.144 12437034.535 -22085207.733 10 0 59678 72000.00000 0 -4567000.610 10312874.570 -22869663.182 10 0 59678 72900.00000 0 -6563512.499 8281386.769 -23209560.763 10 0 59678 73800.00000 0 -8717899.858 6397191.164 -23098412.851 10 0 59678 74700.00000 0 -10975187.969 4706018.284 -22538498.706 10 0 59678 75600.00000 0 -13273551.713 3242978.703 -21540811.038 10 0 59678 76500.00000 0 -15546731.080 2031292.817 -20124834.131 10 0 59678 77400.00000 0 -17726645.371 1081532.186 -18318158.326 10 0 59678 78300.00000 0 -19746097.554 391402.301 -16155938.716 10 0 59678 79200.00000 0 -21541456.496 -53926.037 -13680208.686 10 0 59678 80100.00000 0 -23055205.717 -280952.338 -10939061.719 10 0 59678 81000.00000 0 -24238252.919 -326486.966 -7985717.255 10 0 59678 81900.00000 0 -25051904.489 -235855.064 -4877488.600 10 0 59678 82800.00000 0 -25469423.069 -60740.509 -1674672.860 10 0 59678 83700.00000 0 -25477103.671 143238.502 1560615.740 10 0 59678 84600.00000 0 -25074823.856 319119.463 4765646.693 10 0 59678 85500.00000 0 -24276045.382 411241.637 7878284.969 10 0 59679 0.00000 0 -23107267.681 367836.379 10838190.232 10 0 59679 900.00000 0 -21606955.459 143452.241 13587982.121 10 0 59679 1800.00000 0 -19823986.881 -298887.410 16074345.372 10 0 59679 2700.00000 0 -17815684.834 -985885.540 18249059.203 10 0 59679 3600.00000 0 -15645514.515 -1932607.557 20069927.531 10 0 59679 4500.00000 0 -13380542.227 -3141610.444 21501594.137 10 0 59679 5400.00000 0 -11088760.660 -4602602.594 22516227.243 10 0 59679 6300.00000 0 -8836391.174 -6292650.027 23094060.639 10 0 59679 7200.00000 0 -6685274.659 -8176921.992 23223781.015 10 0 59679 8100.00000 0 -4690458.689 -10209946.656 22902753.948 10 0 59679 9000.00000 0 -2898080.745 -12337326.362 22137083.799 10 0 59679 9900.00000 0 -1343635.163 -14497842.633 20941505.694 10 0 59679 10800.00000 0 -50695.603 -16625864.687 19339110.817 10 0 59679 11700.00000 0 969853.874 -18653962.226 17360909.269 10 0 59679 12600.00000 0 1720047.123 -20515614.138 15045237.882 10 0 59679 13500.00000 0 2214514.210 -22147900.271 12437023.475 10 0 59679 14400.00000 0 2479623.386 -23494063.571 9586914.955 10 0 59679 15300.00000 0 2552123.114 -24505834.670 6550300.652 10 0 59679 16200.00000 0 2477341.827 -25145420.602 3386229.781 10 0 59679 17100.00000 0 2307022.214 -25387073.220 156259.171 10 0 59679 18000.00000 0 2096882.489 -25218170.345 -3076751.638 10 0 59679 18900.00000 0 1904009.033 -24639763.269 -6249872.637 10 0 59679 19800.00000 0 1784192.232 -23666567.050 -9301337.899 10 0 59679 20700.00000 0 1789319.719 -22326393.528 -12171757.142 10 0 59679 21600.00000 0 1964938.903 -20659050.913 -14805279.703 10 0 59679 22500.00000 0 2348093.324 -18714756.574 -17150687.371 10 0 59679 23400.00000 0 2965525.475 -16552130.193 -19162394.158 10 0 59679 24300.00000 0 3832322.944 -14235852.111 -20801333.300 10 0 59679 25200.00000 0 4951065.723 -11834085.434 -22035714.328 10 0 59679 26100.00000 0 6311511.073 -9415770.290 -22841635.844 10 0 59679 27000.00000 0 7890829.535 -7047903.417 -23203542.736 10 0 59679 27900.00000 0 9654382.409 -4792916.395 -23114519.761 10 0 59679 28800.00000 0 11557008.239 -2706261.370 -22576416.582 10 0 59679 29700.00000 0 13544764.555 -834303.846 -21599802.682 10 0 59679 30600.00000 0 15557052.263 787390.964 -20203753.649 10 0 59679 31500.00000 0 17529034.018 2135308.369 -18415473.564 10 0 59679 32400.00000 0 19394245.881 3198720.748 -16269761.120 10 0 59679 33300.00000 0 21087293.489 3979881.592 -13808330.019 10 0 59679 34200.00000 0 22546520.466 4493670.825 -11078996.902 10 0 59679 35100.00000 0 23716537.984 4766708.112 -8134752.527 10 0 59679 36000.00000 0 24550510.171 4835973.003 -5032734.072 10 0 59679 36900.00000 0 25012100.158 4746991.211 -1833118.448 10 0 59679 37800.00000 0 25076995.748 4551664.440 1402042.070 10 0 59679 38700.00000 0 24733951.170 4305835.952 4610019.478 10 0 59679 39600.00000 0 23985301.519 4066694.979 7728621.774 10 0 59679 40500.00000 0 22846928.485 3890129.720 10697393.524 10 0 59679 41400.00000 0 21347678.716 3828140.709 13458782.342 10 0 59679 42300.00000 0 19528258.954 3926423.680 15959248.927 10 0 59679 43200.00000 0 17439653.652 4222223.880 18150299.689 10 0 59679 44100.00000 0 15141130.524 4742552.462 19989422.499 10 0 59679 45000.00000 0 12697916.430 5502840.377 21440907.914 10 0 59679 45900.00000 0 10178639.497 6506087.114 22476540.525 10 0 59679 46800.00000 0 7652642.902 7742541.042 23076147.420 10 0 59679 47700.00000 0 5187281.090 9189926.094 23227993.304 10 0 59679 48600.00000 0 2845309.838 10814206.899 22929014.573 10 0 59679 49500.00000 0 682477.768 12570862.124 22184887.472 10 0 59679 50400.00000 0 -1254581.154 14406614.469 21009928.355 10 0 59679 51300.00000 0 -2930067.001 16261546.669 19426827.124 10 0 59679 52200.00000 0 -4320273.908 18071516.378 17466217.946 10 0 59679 53100.00000 0 -5414338.318 19770769.875 15166094.484 10 0 59679 54000.00000 0 -6214444.430 21294645.704 12571079.958 10 0 59679 54900.00000 0 -6735478.408 22582255.018 9731565.299 10 0 59679 55800.00000 0 -7004146.156 23579025.707 6702731.636 10 0 59679 56700.00000 0 -7057592.253 24239002.719 3543475.913 10 0 59679 57600.00000 0 -6941578.938 24526806.782 315260.662 10 0 59679 58500.00000 0 -6708302.921 24419167.901 -2919089.014 10 0 59679 59400.00000 0 -6413943.542 23905968.062 -6096617.002 10 0 59679 60300.00000 0 -6116047.272 22990748.154 -9155471.266 10 0 59679 61200.00000 0 -5870860.688 21690656.980 -12036117.141 10 0 59679 62100.00000 0 -5730726.316 20035844.237 -14682504.204 10 0 59679 63000.00000 0 -5741652.867 18068322.737 -17043163.105 10 0 59679 63900.00000 0 -5941163.811 15840347.951 -19072210.333 10 0 59679 64800.00000 0 -6356516.095 13412383.167 -20730241.116 10 0 59679 65700.00000 0 -7003364.852 10850735.805 -21985093.178 10 0 59679 66600.00000 0 -7884930.776 8224964.174 -22812466.802 10 0 59679 67500.00000 0 -8991705.415 5605163.061 -23196389.829 10 0 59679 68400.00000 0 -10301706.814 3059241.270 -23129519.346 10 0 59679 69300.00000 0 -11781274.702 650304.118 -22613275.004 10 0 59679 70200.00000 0 -13386371.817 -1565750.934 -21657802.224 10 0 59679 71100.00000 0 -15064336.815 -3542326.665 -20281766.669 10 0 59679 72000.00000 0 -16756015.332 -5243820.762 -18511984.519 10 0 59679 72900.00000 0 -18398180.125 -6646853.977 -16382896.081 10 0 59679 73800.00000 0 -19926139.180 -7740982.451 -13935893.089 10 0 59679 74700.00000 0 -21276422.816 -8528866.355 -11218512.869 10 0 59679 75600.00000 0 -22389437.590 -9025889.778 -8283514.900 10 0 59679 76500.00000 0 -23211976.166 -9259249.514 -5187857.578 10 0 59679 77400.00000 0 -23699478.238 -9266552.560 -1991594.955 10 0 59679 78300.00000 0 -23817948.047 -9093982.537 1243285.289 10 0 59679 79200.00000 0 -23545448.265 -8794113.188 4454060.274 10 0 59679 80100.00000 0 -22873107.748 -8423461.706 7578483.599 10 0 59679 81000.00000 0 -21805600.863 -8039885.410 10555987.001 10 0 59679 81900.00000 0 -20361078.106 -7699931.712 13328849.021 10 0 59679 82800.00000 0 -18570550.526 -7456253.082 15843308.315 10 0 59679 83700.00000 0 -16476753.123 -7355195.929 18050600.545 10 0 59679 84600.00000 0 -14132533.832 -7434664.921 19907899.312 10 0 59679 85500.00000 0 -11598834.379 -7722352.748 21379143.376 10 0 59680 0.00000 0 -8942346.224 -8234410.048 22435734.665 10 0 59680 900.00000 0 -6232936.439 -8974612.304 23057094.395 10 0 59680 1800.00000 0 -3540952.985 -9934058.862 23231065.398 10 0 59680 2700.00000 0 -934515.367 -11091418.834 22954154.741 10 0 59680 3600.00000 0 1523094.293 -12413714.374 22231610.055 10 0 59680 4500.00000 0 3775833.602 -13857610.320 21077328.104 10 0 59680 5400.00000 0 5776996.252 -15371157.668 19513596.410 10 0 59680 6300.00000 0 7490915.648 -16895919.253 17570671.838 10 0 59680 7200.00000 0 8894204.990 -18369389.603 15286203.259 10 0 59680 8100.00000 0 9976482.308 -19727608.148 12704508.407 10 0 59680 9000.00000 0 10740550.243 -20907856.347 9875718.103 10 0 59680 9900.00000 0 11202023.226 -21851325.070 6854803.928 10 0 59680 10800.00000 0 11388418.086 -22505639.412 3700508.022 10 0 59680 11700.00000 0 11337746.964 -22827133.587 474195.967 10 0 59680 12600.00000 0 11096672.590 -22782778.790 -2761344.285 10 0 59680 13500.00000 0 10718304.962 -22351681.530 -5943133.243 10 0 59680 14400.00000 0 10259733.761 -21526087.987 -9009235.444 10 0 59680 15300.00000 0 9779402.263 -20311851.063 -11899974.460 10 0 59680 16200.00000 0 9334435.188 -18728339.539 -14559102.628 10 0 59680 17100.00000 0 8978034.925 -16807792.693 -16934901.829 10 0 59680 18000.00000 0 8757057.420 -14594147.483 -18981193.209 10 0 59680 18900.00000 0 8709870.985 -12141387.391 -20658235.925 10 0 59680 19800.00000 0 8864589.025 -9511482.232 -21933497.509 10 0 59680 20700.00000 0 9237751.518 -6772005.405 -22782281.174 10 0 59680 21600.00000 0 9833510.780 -3993528.054 -23188198.562 10 0 59680 22500.00000 0 10643355.666 -1246898.741 -23143479.515 10 0 59680 23400.00000 0 11646385.427 1399478.394 -22649113.681 10 0 59680 24300.00000 0 12810121.415 3882254.427 -21714822.043 10 0 59680 25200.00000 0 14091822.255 6145527.786 -20358859.583 10 0 59680 26100.00000 0 15440247.012 8142919.475 -18607653.477 10 0 59680 27000.00000 0 16797792.304 9839246.578 -16495284.187 10 0 59680 27900.00000 0 18102913.688 11211726.136 -14062819.693 10 0 59680 28800.00000 0 19292729.804 12250660.943 -11357515.863 10 0 59680 29700.00000 0 20305700.200 12959580.551 -8431898.429 10 0 59680 30600.00000 0 21084264.636 13354833.408 -5342744.233 10 0 59680 31500.00000 0 21577333.291 13464648.796 -2149981.465 10 0 59680 32400.00000 0 21742523.485 13327709.427 1084469.940 10 0 59680 33300.00000 0 21548049.133 12991295.801 4297895.437 10 0 59680 34200.00000 0 20974183.596 12509081.211 7427997.387 10 0 59680 35100.00000 0 20014234.435 11938670.804 10414097.722 10 0 59680 36000.00000 0 18674988.839 11338988.573 13198308.736 10 0 59680 36900.00000 0 16976610.588 10767622.412 15726649.624 10 0 59680 37800.00000 0 14951992.120 10278238.911 17950087.594 10 0 59680 38700.00000 0 12645587.804 9918176.559 19825483.980 10 0 59680 39600.00000 0 10111776.011 9726318.473 21316427.450 10 0 59680 40500.00000 0 7412816.928 9731334.068 22393938.781 10 0 59680 41400.00000 0 4616489.659 9950363.756 23037033.932 10 0 59680 42300.00000 0 1793505.504 10388202.364 23233134.684 10 0 59680 43200.00000 0 -985196.545 11037016.274 22978318.899 10 0 59680 44100.00000 0 -3651161.076 11876607.198 22277405.209 10 0 59680 45000.00000 0 -6141022.667 12875212.730 21143869.880 10 0 59680 45900.00000 0 -8398900.014 13990811.377 19599596.603 10 0 59680 46800.00000 0 -10378478.809 15172878.643 17674462.994 10 0 59680 47700.00000 0 -12044696.894 16364521.434 15405770.742 10 0 59680 48600.00000 0 -13374961.612 17504901.959 12837529.375 10 0 59680 49500.00000 0 -14359848.573 18531849.540 10019606.643 10 0 59680 50400.00000 0 -15003252.570 19384550.299 7006761.480 10 0 59680 51300.00000 0 -15321984.574 20006200.884 3857578.079 10 0 59680 52200.00000 0 -15344832.026 20346513.387 633321.942 10 0 59680 53100.00000 0 -15111122.687 20363964.552 -2603259.193 10 0 59680 54000.00000 0 -14668853.491 20027693.001 -5789165.416 10 0 59680 54900.00000 0 -14072464.486 19318962.940 -8862380.647 10 0 59680 55800.00000 0 -13380353.223 18232131.332 -11763089.301 10 0 59680 56700.00000 0 -12652235.970 16775076.623 -14434848.829 10 0 59680 57600.00000 0 -11946468.688 14969070.144 -16825694.406 10 0 59680 58500.00000 0 -11317442.075 12848095.103 -18889153.573 10 0 59680 59400.00000 0 -10813161.637 10457641.472 -20585150.803 10 0 59680 60300.00000 0 -10473115.445 7853027.174 -21880784.461 10 0 59680 61200.00000 0 -10326519.675 5097315.771 -22750961.372 10 0 59680 62100.00000 0 -10391015.753 2258917.658 -23178877.287 10 0 59680 63000.00000 0 -10671873.584 -591025.388 -23156334.750 10 0 59680 63900.00000 0 -11161733.756 -3381363.575 -22683892.968 10 0 59680 64800.00000 0 -11840898.936 -6043657.673 -21770847.643 10 0 59680 65700.00000 0 -12678161.514 -8514780.583 -20435041.838 10 0 59680 66600.00000 0 -13632132.154 -10739294.721 -18702512.103 10 0 59680 67500.00000 0 -14653012.951 -12671507.751 -16606977.097 10 0 59680 68400.00000 0 -15684740.422 -14277122.611 -14189178.804 10 0 59680 69300.00000 0 -16667408.099 -15534414.720 -11496089.188 10 0 59680 70200.00000 0 -17539866.869 -16434889.002 -8579997.668 10 0 59680 71100.00000 0 -18242393.805 -16983391.012 -5497496.915 10 0 59680 72000.00000 0 -18719317.346 -17197669.072 -2308386.627 10 0 59680 72900.00000 0 -18921488.540 -17107407.267 925483.623 10 0 59680 73800.00000 0 -18808494.456 -16752771.086 4141410.208 10 0 59680 74700.00000 0 -18350520.689 -16182527.758 7277046.802 10 0 59680 75600.00000 0 -17529784.499 -15451820.962 10271608.021 10 0 59680 76500.00000 0 -16341478.058 -14619693.919 13067042.327 10 0 59680 77400.00000 0 -14794181.681 -13746465.130 15609151.727 10 0 59680 78300.00000 0 -12909728.935 -12891067.069 17848637.077 10 0 59680 79200.00000 0 -10722528.208 -12108459.494 19742049.276 10 0 59680 80100.00000 0 -8278367.844 -11447225.757 21252628.421 10 0 59680 81000.00000 0 -5632753.234 -10947452.834 22351015.232 10 0 59680 81900.00000 0 -2848843.474 -10638983.909 23015821.390 10 0 59680 82800.00000 0 4928.144 -10540116.890 23234047.909 10 0 59680 83700.00000 0 2857452.537 -10656803.764 23001343.474 10 0 59680 84600.00000 0 5637655.748 -10982384.899 22322097.404 10 0 59680 85500.00000 0 8277210.937 -11497870.268 21209364.822 99